Location: Piotrkow Trybunalski
(51.4000°N, 19.6830°E)
Time: 16:10:43
(UTC+01:00)

CUTE-I - Visible Passes

Search period start: 21 March 2023 00:00
Search period end: 31 March 2023 01:00
Orbit: 809 x 824 km, 98.7° (Epoch: 20 March)

Date Brightness Start Highest point End Pass type
(mag) Time Alt. Az. Time Alt. Az. Time Alt. Az.
21 Mar ? 04:41:20 10° NE 04:44:31 16° E 04:47:41 10° ESE visible
22 Mar ? 04:21:42 10° ENE 04:22:15 10° E 04:22:46 10° E visible
23 Mar ? 18:46:57 10° WSW 18:49:23 13° W 18:51:51 10° WNW visible
25 Mar ? 04:53:18 10° NE 04:57:09 20° E 05:01:00 10° SE visible
26 Mar ? 05:32:26 10° ENE 05:34:56 13° E 05:37:25 10° ESE visible
27 Mar ? 20:01:38 10° W 20:02:04 10° W 20:02:30 10° WNW visible
28 Mar ? 19:36:38 10° WSW 19:39:47 16° W 19:42:57 10° NW visible
30 Mar ? 05:44:10 10° NE 05:47:34 17° E 05:50:56 10° SE visible
